weather.gov     
National Weather Service

Regional Weather Roundup
NWS Homepage
This page is being discontinued on March 12, 2014.
The same data is available at this site. Please update your bookmarks.
Thank you, and we apologize for the inconvenience.
Please send an email to SR-SRH.Webmaster@noaa.gov with any concerns.


Current Version
Previous Version:    01  02  03  04  05  06  07  08  09  10  11  12  13  14  15  16  17  18  19  20  21  22  23  24  25  26  27  28  29  30  
   31  32  33  34  35  36  37  38  39  40  41  42  43  44  45  46  47  48  49  50  51  52  53  54  
[Printable]
704
ASUS43 KIWX 311800
RWRIWX

KIWX WEATHER ROUNDUP
NATIONAL WEATHER SERVICE NORTHERN INDIANA
200 PM EDT THU JUL 31 2014

NOTE: "FAIR" INDICATES FEW OR NO CLOUDS BELOW 12,000 FEET WITH NO
SIGNIFICANT WEATHER AND/OR OBSTRUCTIONS TO VISIBILITY.

* THESE STATIONS ARE NOT UNDER NWS QUALITY CONTROL. THEY ALSO MAY NOT
  REPORT WEATHER SUCH AS PRECIPITATION OR FOG.

INZ001>027-311900-
NORTHERN INDIANA

CITY           SKY/WX    TMP DP  RH WIND       PRES   REMARKS
GARY*          MOSUNNY   81  59  47 W17       30.05F
VALPARAISO     MOSUNNY   80  60  50 W10       30.06F
6HR MIN TEMP:  60; 6HR MAX TEMP:  80;

KNOX*          MOSUNNY   79  57  46 W9G16     30.05F
6HR MIN TEMP:  44; 6HR MAX TEMP:  86;

SOUTH BEND     MOSUNNY   81  57  43 W14       30.05F
6HR MIN TEMP:  59; 6HR MAX TEMP:  81;

GOSHEN         MOSUNNY   80  59  48 W13G22    30.06S
6HR MIN TEMP:  58; 6HR MAX TEMP:  81;

MONTICELLO*    SUNNY     77  62  59 W7        30.07S
6HR MIN TEMP:  57; 6HR MAX TEMP:  78;

WARSAW*        MOSUNNY   79  59  50 W10G18    30.07S
ANGOLA*        PTSUNNY   79  57  47 W10       30.06S
FORT WAYNE     MOSUNNY   79  57  46 SW12      30.07F
6HR MIN TEMP:  59; 6HR MAX TEMP:  79;

PERU/GRISSOM   SUNNY     79  61  54 W12       30.08S
6HR MIN TEMP:  59; 6HR MAX TEMP:  79;


$$
INZ028>050-311900-
CENTRAL INDIANA

CITY           SKY/WX    TMP DP  RH WIND       PRES   REMARKS
LAFAYETTE      SUNNY     79  57  46 W8        30.08S
6HR MIN TEMP:  59; 6HR MAX TEMP:  79;

KOKOMO*        SUNNY     79  61  53 W10       30.09S
6HR MIN TEMP:  57; 6HR MAX TEMP:  79;

MUNCIE*        SUNNY     79  57  46 W10       30.09S
6HR MIN TEMP:  62; 6HR MAX TEMP:  79;

INDIANAPOLIS   MOSUNNY   79  60  52 W10       30.09F
6HR MIN TEMP:  62; 6HR MAX TEMP:  79;


$$
MIZ043>046-050>051-056>058-064>065-071>073-077>080-311900-
SOUTHWEST LOWER MICHIGAN

CITY           SKY/WX    TMP DP  RH WIND       PRES   REMARKS
BATTLE CREEK   MOSUNNY   78  59  51 SW15      30.04S
6HR MIN TEMP:  59; 6HR MAX TEMP:  78;

BENTON HARBOR  SUNNY     76  56  49 W16       30.05S
6HR MIN TEMP:  58; 6HR MAX TEMP:  77;

COLDWATER*     CLOUDY    78  60  54 W15G21    30.04F
6HR MIN TEMP:  58; 6HR MAX TEMP:  78;

HILLSDALE*     MOSUNNY   77  57  50 SW9G16    30.05F
HOLLAND        SUNNY     74  61  63 SW12      30.04S
6HR MIN TEMP:  65; 6HR MAX TEMP:  75;

GRAND RAPIDS   MOSUNNY   79  61  53 SW14      30.02S
6HR MIN TEMP:  59; 6HR MAX TEMP:  79;

KALAMAZOO      PTSUNNY   78  58  49 W16       30.04S
6HR MIN TEMP:  59; 6HR MAX TEMP:  79;

STURGIS*       PTSUNNY   77  59  53 W10       30.05S
THREE RIVERS*  FAIR      80  61  51 W10G18    30.05S

$$
OHZ001>008-015>018-024>025-311900-
NORTHWEST OHIO

CITY           SKY/WX    TMP DP  RH WIND       PRES   REMARKS
DEFIANCE       MOSUNNY   79  56  45 SW7       30.05F
6HR MIN TEMP:  56; 6HR MAX TEMP:  79;

FINDLAY        MOSUNNY   80  55  42 W13       30.06F
6HR MIN TEMP:  60; 6HR MAX TEMP:  80;

TOLEDO EXPRESS SUNNY     80  51  36 W10       30.05F
6HR MIN TEMP:  55; 6HR MAX TEMP:  80;

TOLEDO METCALF SUNNY     79  51  37 W12       30.06S
6HR MIN TEMP:  58; 6HR MAX TEMP:  79;

LIMA           MOSUNNY   78  59  51 SW12G21   30.08F
6HR MIN TEMP:  62; 6HR MAX TEMP:  79;


$$
&&




U.S. Dept. of Commerce
NOAA National Weather Service
1325 East West Highway
Silver Spring, MD 20910
E-mail: w-nws.webmaster@noaa.gov
Page last modified: May 16, 2007
NATIONAL WEATHER SERVICE: for Safety, for Work, for Fun - FOR LIFE